Location: Lane
(33.5226°N, 79.8788°W)
Time: 09:33:24
(UTC+00:00)

Altair - Pass Details

Date: 05 October 2022
Orbit: 1501 x 1682 km, 47.2° (Epoch: 30 November)

Event Time Altitude Azimuth Distance (km) Brightness Sun altitude
Rises 11:38:33 0° 276° (W) 4,790 9.4 3.7°
Reaches altitude 10° 11:41:57 10° 284° (WNW) 3,831 9.0 4.4°
Maximum altitude 11:50:57 39° 351° (N) 2,317 8.4 6.2°
Drops below altitude 10° 12:00:13 10° 57° (ENE) 3,936 10.5 8.1°
Sets 12:03:47 0° 65° (ENE) 4,933 11.1 8.8°
